Location: Kershaw
(34.5481°N, 80.5823°W)
Time: 20:36:25
(UTC+00:00)

Vanguard 2 Rocket - Pass Details

Date: 09 October 2022
Orbit: 555 x 3321 km, 32.9° (Epoch: 28 November)

Event Time Altitude Azimuth Distance (km) Brightness Sun altitude
Rises 04:22:26 0° 266° (W) 7,074 11.6 -59.7°
Reaches altitude 10° 04:27:36 10° 266° (W) 5,803 11.0 -60.1°
Enters shadow 04:32:27 22° 266° (W) 4,554 10.4 -60.4°
